Back to catalog

IRIDIUM 33 DEB

AlivePO
NORAD 34870·DEBRIS·🇺🇸 United States

Launched Sep 14, 1997 from Baikonur Cosmodrome

Loading…

Next Passes (next 24 hours)

TLE

FreshSource: Space-Track

Epoch: Sep 14, 2026, 13:44 UTC

1 34870U 97051MQ  26257.57271012  .00006596  00000-0  84182-3 0  9993
2 34870  86.3151 187.2128 0014456 320.2678 162.4652 14.81254058929885

Track IRIDIUM 33 DEB in real time with AllMySat

Download on the App Store